Weather in Narva

Estonia     59°22′33″N   28°11′43″E
temp.,
°C
wind,
m/s
gust,
m/s
humid.,
%
clouds,
%
prec.,
mm/h
press.,
hPa
HPBL,
m
14 april, wed
wed1400:00+2w2579100 0.2 1021158
03:00+3wnw2775100 0.2 1020234
06:00+2wnw2780100 0.0 1020211
09:00+4nw356762 0.0 1020470
12:00+6nw456269 0.0 1021726
15:00+6nw455512 0.0 1023754
18:00+5nw346261 0.0 1023468
21:00+2nnw2684100 0.0 1025159
15 april, thu
thu1500:00+2ne2981100 0.0 1026210
03:00+1nne2874100 0.0 1027160
06:000ne288268 0.0 1028166
09:00+4ne475932 0.0 1030612
12:00+7nne57435 0.0 10301045
15:00+8nne57401 0.0 10301245
18:00+8ne58400 0.0 10301099
21:00+3ne39550 0.0 1031300
16 april, fri
fri1600:00+2ne311655 0.0 1031306
03:00+1ne310755 0.0 1031255
06:000ne411786 0.0 1031285
09:00+5ene511537 0.0 1031594
12:00+9ene58365 0.0 10311063
15:00+11ene5730100 0.0 10301237
18:00+9ene5942100 0.0 1030850
21:00+6ene41253100 0.0 1031426
17 april, sat
sat1700:00+4ene41261100 0.0 1032349
03:00+4ene4126595 0.0 1032344
06:00+3ene4126899 0.0 1033318
09:00+7e41253100 0.0 1033501
12:00+11e583615 0.0 1033950
15:00+14e563050 0.0 10331346
18:00+13e4637100 0.0 10321305
21:00+8ene376096 0.0 1033128
18 april, sun
sun1800:00+5e397122 0.0 1033171
03:00+4ese387410 0.0 1033149
06:00+3ese387633 0.0 1033145
09:00+9ese475413 0.0 1033405
12:00+13ese46385 0.0 10321409
15:00+15ese45335 0.0 10311801
18:00+14ese35375 0.0 10301763
21:00+9ese35595 0.0 103187